Terminal Aerodrome Forecast
Issued by NWS

Home | Current Version | Previous Version | Text Only | Print | Product List | Glossary On
Versions: 1 2 3 4 5 6 7 8 9 10 11 12
000
FTUS42 TJSJ 020540
TAFJPS
TAF
TJPS 020540Z 0206/0306 VRB03KT P6SM FEW030 SCT120
     FM021400 15010KT P6SM SCT030
     FM022300 07005KT P6SM FEW030
      AMD NOT SKED 0211/0303=

USA.gov is the U.S. government's official web portal to all federal, state and local government web resources and services.